Location: Helsinki
(60.1699°N, 24.9384°E)
Time: 14:06:35
(UTC+02:00)

Transit 4A - Pass Details

Date: 02 November 2020
Orbit: 862 x 982 km, 66.8° (Epoch: 26 November)

Event Time Altitude Azimuth Distance (km) Brightness Sun altitude
Rises 14:34:58 0° 198° (SSW) 3,620 12.6 8.9°
Reaches altitude 10° 14:37:35 10° 192° (SSW) 2,693 11.7 8.7°
Maximum altitude 14:43:30 44° 123° (ESE) 1,326 8.8 8.3°
Drops below altitude 10° 14:49:32 10° 54° (NE) 2,746 9.8 7.8°
Sets 14:52:14 0° 48° (NE) 3,699 10.4 7.6°
